Find Starlink 38260

NORAD ID: 100304 Int'l Des: 2026-184 Owner: SPXS Country: US Constellation: starlink operational

現在のビュー

3D地球を読み込み中...

About Starlink 38260

Starlink 38260 (NORAD 100304) is a starlink constellation satellite launched Aug 12, 2026 by SPXS of US. with a mass of 575.00 kg.

次回通過

Passes for default location (London). Set your location on the main map for personalized predictions.

高度履歴

Loading altitude history...

軌道要素

1 A0304U 26184D 26248.10062727 -.00328131 00000-0 -69208-2 0 9992
2 A0304 97.2848 113.3378 0001029 37.0595 323.0726 15.46420829 4990
Epoch: Sep 5, 2026 • Age: 12 hours

現在のステータス

高度 456.6 km
遠地点 / 近地点 N/A
速度 7.64 km/s
衛星直下点 -78.52°S, 54.19°E
打ち上げ日 Aug 12, 2026
運用期間 24 days
タイプ internet

技術仕様

分類 Payload
質量 575.00 kg
乾燥質量 530.00 kg
総質量 575.00 kg
長さ 0.30 m
直径 4.10 m
スパン 29.00 m
形状 Box + pan
製造者 SPXS
バスタイプ Starlink V2MO
フェーズステータス In Orbit
所有者/国 SPXS/US

Most Searched